Back to catalog

ARIANE 5 R/B

AliveHEO
NORAD 40334·ROCKET BODY·🇫🇷 France

Launched Dec 6, 2014 from Guiana Space Centre

Loading…

Next Passes (next 24 hours)

TLE

FreshSource: Space-Track

Epoch: Sep 14, 2026, 09:15 UTC

1 40334U 14078C   26257.38608976  .00004830  00000-0  73951-3 0  9996
2 40334   6.5111 304.5872 6776695 295.8053  10.8343  2.95155847109877

Track ARIANE 5 R/B in real time with AllMySat

Download on the App Store